(199278) = 2006 BV37 = 2007 GM66

Discovered at Mount Lemmon on 2006-01-23 by Mt. Lemmon Survey.

Orbit

Orbit type: Main Belt

Note: WebGL enabled browser required.

epoch2022-01-21.0
epoch JD2459600.5
perihelion date2017-12-21.37649
perihelion JD2458108.87649
argument of perihelion (°)179.36384
ascending node (°)65.85365
inclination (°)1.06408
eccentricity0.1374160
perihelion distance (AU)2.5969769
Tisserand w.r.t. Jupiter3.2
ΔV w.r.t. Earth (km/sec)10.1
semimajor axis (AU)3.0106945
mean anomaly (°)281.42523
mean daily motion (°/day)0.18867040
aphelion distance (AU)3.424
period (years)5.22
P-vector [x]-0.41917326
P-vector [y]-0.83306970
P-vector [z]-0.36095519
Q-vector [x]0.90774810
Q-vector [y]-0.37713435
Q-vector [z]-0.18374728
absolute magnitude16.38
phase slope0.15
uncertainty0
referenceMPO 695249
observations used276
oppositions16
arc length (days)9532
first opposition used1996
last opposition used2022
residual rms (arc-secs)0.74
perturbers coarse indicatorM-v
perturbers precise indicator003Ek
first observation date used1996-02-15.0
last observation date used2022-03-22.0
computer namePan
JD of orbit computation2456966.770312
perihelion JD uncertainty (days)8.9626E-05
argument of perihelion uncertainty (°)2.4664E-04
ascending node uncertainty (°)2.4599E-04
inclination uncertainty (°)3.9547E-06
eccentricity uncertainty 3.5043E-08
perihelion distance uncertainty (AU)1.0242E-07
Minimum Orbit Intersection Distances (in AU)
for orbit epoch: 2458200.5, reference: MPO407507
Mercury2.12693
Venus1.8661
Earth1.57827
Mars1.04396
Jupiter1.58515
Saturn5.69081
Uranus15.2499
Neptune26.4498

Observations

286 total observations over interval: 1996 02 15.46364 – 2022 05 26.182843
These data are available for download (format description).

Date (UT) J2000 RA J2000 Dec Magn Location Ref
1996 02 15.46364 11 34 35.22 +04 25 36.6 21.0 V 691 – Steward Observatory, Kitt Peak-Spacewatch MPS 208123
1996 02 15.48453 11 34 34.52 +04 25 41.4   691 – Steward Observatory, Kitt Peak-Spacewatch MPS 208123
1996 02 15.50542 11 34 33.79 +04 25 46.4   691 – Steward Observatory, Kitt Peak-Spacewatch MPS 208123
2001 02 21.29729 09 54 43.98 +14 22 01.7 21.0 V 691 – Steward Observatory, Kitt Peak-Spacewatch MPS 208123
2001 02 21.31902 09 54 42.89 +14 22 07.6 21.1 V 691 – Steward Observatory, Kitt Peak-Spacewatch MPS 208123
2001 02 21.34046 09 54 41.80 +14 22 13.2 21.2 V 691 – Steward Observatory, Kitt Peak-Spacewatch MPS 208123
2003 09 17.22977 23 54 21.28 -02 13 21.6 22.1 V 691 – Steward Observatory, Kitt Peak-Spacewatch MPS 208123
2003 09 17.25693 23 54 19.99 -02 13 30.4 21.3 V 691 – Steward Observatory, Kitt Peak-Spacewatch MPS 208123
2003 09 17.28407 23 54 18.70 -02 13 38.5 21.4 V 691 – Steward Observatory, Kitt Peak-Spacewatch MPS 208123
2003 09 29.22218 23 45 16.34 -03 10 07.1 21.1 V 691 – Steward Observatory, Kitt Peak-Spacewatch MPS 208123
2003 09 29.26915 23 45 14.20 -03 10 19.7 21.3 V 691 – Steward Observatory, Kitt Peak-Spacewatch MPS 208123
2003 09 29.29731 23 45 12.93 -03 10 27.3 21.6 V 691 – Steward Observatory, Kitt Peak-Spacewatch MPS 208123
2005 12 30.48575 09 11 58.28 +17 28 45.0 21.6 V 691 – Steward Observatory, Kitt Peak-Spacewatch MPS 208123
2005 12 30.50314 09 11 57.79 +17 28 47.2 21.3 V 691 – Steward Observatory, Kitt Peak-Spacewatch MPS 208123
2005 12 30.52055 09 11 57.30 +17 28 49.5 21.0 V 691 – Steward Observatory, Kitt Peak-Spacewatch MPS 208123
2006 01 23.34621 08 55 50.98 +18 45 37.5 20.8 V G96 – Mt. Lemmon Survey MPS 160637
2006 01 23.35391 08 55 50.59 +18 45 39.2 21.0 V G96 – Mt. Lemmon Survey MPS 160637
2006 01 23.36153 08 55 50.19 +18 45 40.9 20.9 V G96 – Mt. Lemmon Survey MPS 160637
2006 01 23.36921 08 55 49.80 +18 45 42.3 20.6 V G96 – Mt. Lemmon Survey MPS 160637
2006 01 25.19001 08 54 17.82 +18 52 20.9   691 – Steward Observatory, Kitt Peak-Spacewatch MPS 160637
2006 01 25.20722 08 54 16.91 +18 52 25.5   691 – Steward Observatory, Kitt Peak-Spacewatch MPS 160637
2006 01 25.22449 08 54 16.00 +18 52 29.1   691 – Steward Observatory, Kitt Peak-Spacewatch MPS 160637
2006 01 30.18536 08 49 59.26 +19 10 28.0 20.6 V 691 – Steward Observatory, Kitt Peak-Spacewatch MPS 161937
2006 01 30.20270 08 49 58.30 +19 10 31.5 20.7 V 691 – Steward Observatory, Kitt Peak-Spacewatch MPS 161937
2006 01 30.22005 08 49 57.37 +19 10 35.3 20.6 V 691 – Steward Observatory, Kitt Peak-Spacewatch MPS 161937
2007 02 25.49722 15 13 10.77 -17 08 55.2 21.6 V G96 – Mt. Lemmon Survey MPS 208123
2007 02 25.50406 15 13 11.02 -17 08 56.3 20.6 V G96 – Mt. Lemmon Survey MPS 208123
2007 02 25.51077 15 13 11.28 -17 08 57.2 21.4 V G96 – Mt. Lemmon Survey MPS 208123
2007 02 25.51763 15 13 11.49 -17 08 57.8 22.0 V G96 – Mt. Lemmon Survey MPS 208123
2007 04 15.39589 15 15 38.45 -17 23 07.0 20.6 V 691 – Steward Observatory, Kitt Peak-Spacewatch MPS 208211
2007 04 15.41356 15 15 37.82 -17 23 04.9 20.5 V 691 – Steward Observatory, Kitt Peak-Spacewatch MPS 208211
2007 04 15.43125 15 15 37.19 -17 23 02.8 20.5 V 691 – Steward Observatory, Kitt Peak-Spacewatch MPS 208211
2007 04 19.42568 15 13 12.50 -17 14 41.6 20.4 V 691 – Steward Observatory, Kitt Peak-Spacewatch MPS 208211
2007 04 19.44408 15 13 11.75 -17 14 39.1 20.3 V 691 – Steward Observatory, Kitt Peak-Spacewatch MPS 208211
2007 04 19.46272 15 13 11.00 -17 14 36.4 20.5 V 691 – Steward Observatory, Kitt Peak-Spacewatch MPS 208211
2007 04 23.40697 15 10 30.79 -17 05 13.3   691 – Steward Observatory, Kitt Peak-Spacewatch MPS 208211
2007 04 23.42658 15 10 29.92 -17 05 10.3   691 – Steward Observatory, Kitt Peak-Spacewatch MPS 208211
2007 04 23.44570 15 10 29.08 -17 05 07.2   691 – Steward Observatory, Kitt Peak-Spacewatch MPS 208211
2007 04 27.42757 15 07 33.00 -16 54 39.7 20.6 V 691 – Steward Observatory, Kitt Peak-Spacewatch MPS 208211
2007 04 27.44526 15 07 32.14 -16 54 36.8 20.3 V 691 – Steward Observatory, Kitt Peak-Spacewatch MPS 208211
2007 04 27.47418 15 07 30.76 -16 54 31.8 20.5 V 691 – Steward Observatory, Kitt Peak-Spacewatch MPS 208211
2007 05 09.31560 14 57 57.81 -16 19 35.4 19.5 V G96 – Mt. Lemmon Survey MPS 208991
2007 05 09.32290 14 57 57.45 -16 19 34.0 19.5 V G96 – Mt. Lemmon Survey MPS 208991
2007 05 09.33013 14 57 57.06 -16 19 32.7 19.4 V G96 – Mt. Lemmon Survey MPS 208991
2007 05 09.33735 14 57 56.70 -16 19 31.5 19.4 V G96 – Mt. Lemmon Survey MPS 208991
2007 05 10.33931 14 57 06.98 -16 16 26.2 19.5 V G96 – Mt. Lemmon Survey MPS 208991
2007 05 10.33985 14 57 06.94 -16 16 26.0 19.3 V G96 – Mt. Lemmon Survey MPS 208991
2007 05 10.34582 14 57 06.66 -16 16 24.9 19.2 V G96 – Mt. Lemmon Survey MPS 208991
2007 05 10.34637 14 57 06.58 -16 16 24.6 19.3 V G96 – Mt. Lemmon Survey MPS 208991
2007 05 10.35231 14 57 06.33 -16 16 24.0 19.4 V G96 – Mt. Lemmon Survey MPS 208991
2007 05 10.35288 14 57 06.26 -16 16 23.5 19.4 V G96 – Mt. Lemmon Survey MPS 208991
2007 05 10.35890 14 57 05.97 -16 16 22.5 19.4 V G96 – Mt. Lemmon Survey MPS 208991
2007 05 10.35943 14 57 05.90 -16 16 22.2 19.3 V G96 – Mt. Lemmon Survey MPS 208991
2007 05 19.175108 14 50 00.85 -15 49 44.7 20.1 V H55 – Astronomical Research Observatory, Charleston MPS 210161
2007 05 19.182809 14 50 00.42 -15 49 42.5 20.1 V H55 – Astronomical Research Observatory, Charleston MPS 210161
2007 05 19.190514 14 50 00.09 -15 49 41.6 20.0 V H55 – Astronomical Research Observatory, Charleston MPS 210161
2007 05 21.132211 14 48 32.01 -15 44 09.3 20.1 V H55 – Astronomical Research Observatory, Charleston MPS 210161
2007 05 21.135888 14 48 31.92 -15 44 08.5 20.2 V H55 – Astronomical Research Observatory, Charleston MPS 210161
2007 05 21.139567 14 48 31.58 -15 44 07.0 19.9 V H55 – Astronomical Research Observatory, Charleston MPS 210161
2007 05 21.146921 14 48 31.40 -15 44 05.3 20.3 V H55 – Astronomical Research Observatory, Charleston MPS 210161
2008 07 30.36011 23 06 33.59 -07 22 01.7   691 – Steward Observatory, Kitt Peak-Spacewatch MPS 252947
2008 07 30.37768 23 06 33.15 -07 22 05.2   691 – Steward Observatory, Kitt Peak-Spacewatch MPS 252947
2008 07 30.39528 23 06 32.70 -07 22 07.9   691 – Steward Observatory, Kitt Peak-Spacewatch MPS 252947
2008 09 03.31943 22 43 35.55 -09 48 48.9 20.8 g 568 – Maunakea MPS 1491226
2008 09 03.35117 22 43 34.02 -09 48 57.7 20.5 g 568 – Maunakea MPS 1491226
2008 09 03.38376 22 43 32.45 -09 49 06.7 20.1 r 568 – Maunakea MPS 1491226
2008 09 22.14689 22 30 15.30 -11 03 20.4 20.8 V 691 – Steward Observatory, Kitt Peak-Spacewatch MPS 256732
2008 09 22.16033 22 30 14.73 -11 03 23.5 20.5 V 691 – Steward Observatory, Kitt Peak-Spacewatch MPS 256732
2008 09 22.17379 22 30 14.29 -11 03 26.1 20.1 V 691 – Steward Observatory, Kitt Peak-Spacewatch MPS 256732
2008 09 24.12137 22 29 06.59 -11 09 17.5 20.9 V 691 – Steward Observatory, Kitt Peak-Spacewatch MPS 256732
2008 09 24.14051 22 29 05.94 -11 09 20.5 21.1 V 691 – Steward Observatory, Kitt Peak-Spacewatch MPS 256732
2008 09 24.15962 22 29 05.28 -11 09 24.6 20.7 V 691 – Steward Observatory, Kitt Peak-Spacewatch MPS 256732
2008 10 02.10506 22 25 11.28 -11 28 42.7 21.1 V 691 – Steward Observatory, Kitt Peak-Spacewatch MPS 257973
2008 10 02.11584 22 25 11.00 -11 28 44.3 21.3 V 691 – Steward Observatory, Kitt Peak-Spacewatch MPS 257973
2008 10 02.12662 22 25 10.71 -11 28 45.4 21.4 V 691 – Steward Observatory, Kitt Peak-Spacewatch MPS 257973
2008 10 02.20917 22 25 08.58 -11 28 54.9 20.9 V G96 – Mt. Lemmon Survey MPS 257973
2008 10 02.21634 22 25 08.40 -11 28 56.1 21.0 V G96 – Mt. Lemmon Survey MPS 257973
2008 10 02.22355 22 25 08.18 -11 28 56.7 21.5 V G96 – Mt. Lemmon Survey MPS 257973
2008 10 02.23075 22 25 08.00 -11 28 57.5 22.0 V G96 – Mt. Lemmon Survey MPS 257973
2009 10 18.41053 03 33 16.16 +18 41 26.7 21.4 V G96 – Mt. Lemmon Survey MPS 300476
2009 10 18.41931 03 33 15.84 +18 41 25.8 21.1 V G96 – Mt. Lemmon Survey MPS 300476
2009 10 18.42797 03 33 15.51 +18 41 24.9 21.2 V G96 – Mt. Lemmon Survey MPS 300476
2009 10 18.43691 03 33 15.22 +18 41 24.2 20.8 V G96 – Mt. Lemmon Survey MPS 300476
2009 11 11.38236 03 15 03.92 +17 38 49.0 20.9 V G96 – Mt. Lemmon Survey MPS 303101
